Location: Unspecified
(0.0000°N, 1.0000°E)
Time: 09:55:17
(UTC+01:00)

Daily predictions for brighter satellites

Satellite Brightness Start Highest point End
(mag) Time Altitude Azimuth Time Altitude Azimuth Time Altitude Azimuth
ARIANE 5 R/B 1.8 19:19:31 10° W 19:22:03 71° S 19:31:33 10° E
Meteor 1-4 Rocket 3.9 19:28:31 10° SE 19:31:03 19° E 19:33:34 10° NE
Cosmos 2219 Rocket 2.2 19:27:08 10° NNW 19:32:45 90° W 19:38:21 10° SSE
ARIANE 5 R/B 2.2 19:32:57 10° WNW 19:34:40 30° N 19:36:58 10° ENE
MOS 1 4.4 19:29:20 10° SSE 19:34:50 55° ENE 19:40:20 10° N
ARIANE 5 R/B 2.4 19:30:01 10° W 19:38:17 55° S 19:40:38 10° ESE
Thor Agena Rocket 3.6 19:33:57 10° NNE 19:38:53 58° ESE 19:43:51 10° S
Cosmos 2233 Rocket 4.2 19:34:10 10° N 19:40:20 77° W 19:46:30 10° S
Tiangong 1 1.6 19:41:19 10° SSW 19:43:18 25° SE 19:44:49 14° E
Cosmos 1371 Rocket 4.4 19:42:03 10° NNW 19:47:20 70° WSW 19:52:40 10° S
Cosmos 2237 Rocket 2.3 19:44:11 10° N 19:49:38 55° ENE 19:55:09 10° SSE
Cosmos 1782 Rocket 3.7 19:46:13 10° S 19:50:42 84° W 19:55:08 10° N
Sylda 4400 2.8 19:50:38 10° WNW 19:52:55 51° N 19:55:12 17° E
SL-16 R/B 3.4 19:50:37 10° NNE 19:54:20 18° ENE 19:58:04 10° ESE
ARIANE 5 DEB (SYLDA) 2.9 19:46:55 10° W 19:54:51 58° S 19:57:06 16° ESE
Cosmos 1464 Rocket 4.0 19:53:33 10° N 19:59:31 54° E 20:05:33 10° SSE
H-2A R/B 2.7 19:56:32 10° SSE 20:00:24 65° E 20:04:17 10° N
Cosmos 1378 Rocket 3.7 20:00:20 10° N 20:04:39 52° E 20:08:59 10° SSE
SPOT 3 Rocket 3.5 19:59:49 10° SSE 20:05:00 89° WSW 20:10:11 10° NNW
Cosmos 2251 Rocket 3.5 20:01:32 10° S 20:06:45 63° ESE 20:11:54 10° NNE
Lacrosse 5 2.6 20:03:14 10° N 20:07:35 29° ENE 20:09:53 21° ESE
Ariane H10+ 1.1 20:05:31 10° W 20:07:48 53° S 20:09:27 22° ESE
ATLAS 2A CENTAUR R/B 3.2 19:58:44 10° NW 20:07:49 31° N 20:10:24 20° ENE
ERS-2 2.4 20:04:21 10° SSE 20:07:52 43° ENE 20:11:22 10° N
Cosmos 2263 Rocket 2.1 20:03:20 10° SSW 20:08:54 86° ESE 20:14:26 10° NNE
Okean 2 Rocket 3.1 20:06:04 10° S 20:10:28 84° W 20:14:50 10° N
Cosmos 1072 Rocket 4.5 20:04:57 10° N 20:11:15 82° E 20:17:39 10° S
ARIANE 5 DEB (SYLDA) 3.2 20:09:51 10° W 20:14:59 79° S 20:17:32 28° ESE
Meteosat 1 Rocket2 3.8 20:10:24 10° WSW 20:15:19 85° NNW 20:19:59 23° ENE
Cosmos 2346 Rocket 4.4 20:09:03 10° S 20:15:20 83° E 20:21:33 10° N
DELTA 2 R/B (1) 4.0 20:12:27 10° NNW 20:17:38 40° NE 20:19:45 29° E
Alouette 2 Rocket 4.1 20:12:29 10° S 20:18:17 72° W 20:22:17 10° N
Cosmos 2151 Rocket 3.7 20:15:03 10° S 20:19:29 54° E 20:23:24 13° NNE
CRYOSAT 2 4.4 20:15:42 10° N 20:20:33 81° W 20:25:24 10° S
Iridium 4 Rocket 3.4 20:16:44 10° N 20:21:00 64° W 20:25:07 10° S
GPS 2-18 Rocket1 3.5 20:18:02 10° NW 20:21:57 47° NNE 20:22:43 41° ENE
Cosmos 1452 Rocket 3.4 20:17:23 10° N 20:22:33 63° ENE 20:27:43 10° SSE
Abrixas rocket 2.2 20:22:27 10° NNW 20:25:15 58° NNE 20:25:15 58° NNE
Meteor 1-5 Rocket 4.1 20:22:22 10° S 20:27:59 71° E 20:33:47 10° NNE
Meteor 1-11 Rocket 4.0 20:23:58 10° SSW 20:29:27 69° W 20:34:56 10° N
Cosmos 2333 Rocket 4.5 20:25:22 10° NW 20:29:55 26° WSW 20:34:31 10° SSW
Okean 1 3.1 20:28:51 10° N 20:32:48 88° E 20:36:46 10° S
Cosmos 1844 Rocket 4.5 20:29:35 10° SSE 20:30:56 15° SE 20:30:56 15° SE
Meteor 1-18 Rocket 4.3 20:28:30 10° N 20:34:00 74° W 20:39:35 10° S
Cosmos 2034 Rocket 3.9 20:29:13 10° N 20:35:34 86° E 20:41:52 10° S
Cosmos 1536 3.1 20:36:54 10° SSW 20:40:51 66° W 20:43:11 24° N
Cosmos 1420 Rocket 3.9 20:37:05 10° N 20:42:23 82° ENE 20:47:42 10° SSE
ARIANE 5 DEB (SYLDA) 3.8 20:36:50 10° W 20:43:23 37° NNW 20:43:33 37° N
Lacrosse 5 rocket 3.9 20:45:50 10° W 20:48:14 16° WNW 20:50:35 10° NNW
ARIANE 44L R/B 4.2 20:46:49 10° SW 20:47:38 16° SW 20:47:38 16° SW
Envisat 2.8 20:44:54 10° SSE 20:49:58 72° ENE 20:55:00 10° N
Ariane H10 4.4 20:54:05 10° WSW 20:57:49 61° S 21:00:37 42° ESE
Intelsat 5-3 Rocket 4.5 20:49:45 10° WSW 21:08:55 61° SSE 21:10:48 52° ESE
USA 229 DEB 3.5 21:02:12 10° SSW 21:08:41 74° SE 21:08:41 74° SE
USA 229 3.5 21:02:20 10° SSW 21:08:44 72° SE 21:08:44 72° SE
ARIANE 5 R/B 4.3 15:21:18 10° W 21:14:45 70° N 21:19:13 50° ENE
SL-16 R/B 3.8 21:33:16 10° NW 21:38:09 31° WSW 21:43:04 10° SSW
Lacrosse 5 4.4 21:46:48 10° WNW 21:49:17 18° WSW 21:49:17 18° WSW
